Temp
16 16 17 17 18 18 19 20 21 22 22 23 24 24 25 26 27 26 27 28 28 28 27 25 26 28 29 29 30 32 19 25 30 30 27 29 29 28 27 27 25 26 24 21 19
15 15 16 17 17 18 19 19 20 21 22 23 23 24 25 26 27 28 27 28 28 28 27 28 30 31 31 32 33 33 26 29 33 30 30 31 31 30 28 27 26 25 24 20 19
15 15 16 16 17 17 18 19 20 21 22 23 23 24 24 25 26 29 28 29 28 28 27 29 29 31 32 33 35 34 30 32 33 32 32 32 31 31 29 28 26 25 22 20 21
15 15 15 16 17 17 18 18 20 20 21 22 23 24 24 24 28 28 28 28 28 28 25 29 30 32 34 34 34 32 34 34 34 33 33 31 31 28 25 24 26 24 22 22 22
14 15 15 16 17 17 18 18 19 20 21 21 22 23 23 24 27 28 28 28 28 28 27 30 31 33 33 34 34 33 35 34 33 33 32 32 32 30 28 28 26 25 23 23 22
14 14 15 16 16 17 18 18 19 20 20 21 22 22 22 25 28 28 28 28 27 27 28 30 31 32 32 34 33 30 32 34 33 32 32 32 31 31 29 28 26 25 24 23 22
14 14 15 15 16 17 18 18 19 20 20 21 21 22 21 25 28 28 27 27 27 28 30 30 31 31 32 33 31 30 32 34 34 33 32 32 30 30 29 28 26 25 24 23 23
13 14 14 15 16 17 18 18 19 20 20 20 21 21 22 26 27 27 28 28 28 29 29 30 30 30 31 32 32 30 31 32 31 31 30 30 20 28 29 28 26 26 25 24 24
13 13 14 15 16 17 18 19 19 20 20 20 20 20 24 26 26 27 28 28 29 29 29 29 30 30 31 32 32 33 32 30 29 32 30 31 23 27 28 28 27 26 25 25 24
13 14 14 14 15 16 18 19 20 20 19 19 19 21 24 27 28 27 27 28 28 29 30 30 30 31 32 32 30 30 28 28 30 31 32 30 27 25 28 27 26 26 26 24 23
12 13 14 15 15 15 17 19 20 19 20 22 25 24 26 27 26 27 28 29 28 29 30 31 30 30 31 33 33 30 26 23 29 32 32 34 27 28 29 28 26 25 26 25 24
11 12 13 13 15 15 16 17 15 15 18 20 22 23 24 25 26 26 27 28 29 29 30 30 30 31 33 33 32 29 23 26 24 32 35 35 32 31 30 29 27 26 26 26 24
11 12 13 14 14 16 16 15 16 16 18 21 23 24 24 25 25 26 27 28 29 29 30 30 31 33 32 32 33 33 29 30 32 27 35 34 34 30 30 30 28 27 26 26 26
11 11 12 14 14 15 17 15 16 16 18 24 26 25 26 26 27 26 27 28 29 29 30 31 32 32 33 32 33 32 34 34 32 34 33 35 32 33 32 31 31 28 27 26 26
10 11 12 10 12 14 14 15 15 16 19 27 28 25 26 26 27 27 27 28 29 30 30 30 31 32 32 33 34 33 35 35 35 35 34 34 33 33 33 32 31 31 28 27 26
10 10 11 11 11 13 14 15 16 18 19 25 27 26 26 27 27 28 28 27 29 29 31 31 33 33 33 34 35 35 34 35 35 34 32 34 34 35 34 33 33 32 31 29 27
10 10 11 11 12 13 14 15 18 18 25 25 26 27 27 27 27 28 28 28 27 27 27 30 31 33 34 33 35 34 33 32 31 32 32 35 35 33 31 28 28 33 32 31 29
9 10 11 10 11 13 14 17 16 21 23 26 26 26 25 27 27 28 27 28 29 29 29 28 29 32 34 33 33 34 34 33 30 31 33 34 33 33 25 23 26 28 33 31 30
9 9 12 13 12 12 14 16 18 20 23 22 22 23 24 25 26 27 27 28 29 29 28 29 29 33 33 35 34 33 33 35 33 34 32 27 32 31 30 30 35 34 33 32 31
9 8 11 13 13 13 15 15 18 21 22 21 19 22 23 25 26 26 26 28 28 30 30 29 29 32 34 34 35 34 35 33 33 30 30 25 25 28 29 33 36 36 34 32 31
9 12 14 13 13 14 15 17 19 19 19 19 19 19 21 22 24 25 26 28 28 29 31 30 29 30 33 33 33 33 33 34 34 34 32 30 29 28 31 31 37 37 34 32 31
8 14 13 12 14 15 16 18 16 19 18 18 18 18 20 21 22 23 24 26 24 25 26 29 30 29 31 34 34 34 33 33 33 31 34 32 29 26 28 30 37 37 34 32 31
10 13 14 13 14 16 17 17 17 17 17 18 18 19 20 19 19 21 22 24 24 24 21 23 27 28 29 33 34 33 34 34 34 34 32 32 30 26 27 32 37 36 33 32 31
9 15 15 14 15 15 15 14 14 16 17 16 17 18 18 18 20 19 21 24 23 23 21 21 24 26 29 30 33 32 33 34 34 33 33 34 33 33 30 28 36 35 33 32 31
9 13 13 14 15 15 16 15 15 16 17 16 16 17 17 17 18 19 20 21 22 22 23 23 22 25 28 30 33 33 33 33 34 34 33 34 35 34 29 23 32 34 33 32 31
8 10 10 12 13 14 13 14 14 16 15 16 15 17 17 17 17 16 15 19 20 22 22 23 23 25 26 28 31 32 34 33 34 34 34 35 32 30 26 29 30 33 32 31 31
7 8 8 11 13 14 14 13 14 15 15 15 15 15 15 15 14 14 15 16 17 18 19 20 21 23 23 27 29 30 33 34 33 34 35 34 30 28 25 21 25 33 32 31 31
Height
1523 1521 1519 1517 1515 1513 1511 1508 1507 1506 1504 1503 1502 1501 1499 1497 1495 1494 1493 1492 1491 1489 1487 1487 1485 1484 1481 1477 1476 1474 1510 1495 1472 1474 1481 1479 1478 1486 1490 1494 1499 1502 1506 1516 1526
1522 1520 1518 1516 1513 1511 1509 1507 1505 1504 1502 1501 1500 1499 1498 1496 1494 1491 1491 1490 1490 1489 1487 1487 1483 1481 1476 1468 1465 1466 1486 1474 1460 1464 1466 1470 1472 1481 1489 1496 1500 1504 1508 1517 1525
1521 1519 1517 1515 1513 1510 1508 1506 1504 1502 1501 1499 1498 1497 1497 1496 1493 1488 1487 1489 1489 1488 1487 1488 1485 1481 1473 1462 1457 1459 1472 1463 1456 1459 1462 1465 1474 1479 1485 1492 1500 1508 1514 1520 1525
1521 1518 1515 1513 1511 1509 1506 1504 1503 1501 1499 1498 1497 1496 1496 1497 1494 1486 1487 1487 1487 1488 1488 1488 1484 1476 1466 1460 1458 1463 1457 1453 1456 1459 1465 1473 1475 1485 1488 1501 1499 1508 1517 1522 1527
1520 1517 1514 1512 1509 1507 1504 1502 1500 1499 1497 1496 1495 1494 1495 1495 1489 1486 1486 1487 1487 1487 1488 1486 1481 1474 1467 1462 1458 1462 1456 1458 1465 1466 1469 1472 1473 1482 1490 1496 1502 1510 1517 1522 1527
1520 1516 1513 1510 1507 1504 1502 1499 1497 1496 1495 1494 1493 1493 1494 1492 1487 1485 1485 1486 1487 1487 1487 1485 1481 1479 1475 1466 1465 1473 1464 1458 1463 1469 1471 1472 1481 1482 1492 1496 1503 1511 1517 1523 1527
1519 1515 1511 1508 1504 1501 1499 1496 1494 1493 1492 1492 1490 1490 1490 1482 1484 1483 1484 1485 1486 1487 1485 1483 1482 1481 1476 1469 1471 1466 1466 1458 1460 1466 1470 1473 1484 1486 1493 1497 1504 1510 1517 1522 1527
1518 1514 1510 1506 1502 1499 1495 1493 1491 1489 1488 1488 1488 1488 1482 1478 1481 1481 1483 1484 1484 1485 1484 1484 1484 1482 1479 1473 1468 1474 1471 1469 1468 1466 1473 1475 1526 1499 1494 1497 1503 1508 1513 1519 1524
1517 1512 1509 1504 1500 1496 1492 1490 1488 1486 1485 1485 1486 1485 1476 1472 1473 1476 1479 1481 1481 1481 1482 1483 1484 1481 1478 1473 1470 1458 1466 1475 1480 1464 1475 1468 1503 1494 1491 1494 1500 1505 1509 1517 1522
1516 1512 1507 1503 1499 1495 1490 1487 1485 1483 1483 1482 1483 1488 1471 1467 1468 1470 1473 1475 1477 1478 1478 1479 1479 1477 1473 1472 1482 1472 1483 1483 1479 1462 1463 1464 1476 1484 1485 1490 1495 1501 1505 1513 1519
1515 1510 1507 1503 1498 1495 1490 1484 1485 1484 1483 1477 1472 1470 1463 1463 1465 1466 1467 1469 1472 1474 1471 1470 1475 1477 1469 1461 1457 1464 1482 1503 1475 1461 1457 1448 1468 1472 1476 1484 1489 1496 1499 1507 1514
1514 1510 1506 1502 1499 1496 1494 1494 1495 1496 1483 1474 1469 1467 1465 1464 1464 1464 1466 1467 1465 1465 1465 1469 1467 1462 1460 1457 1458 1465 1493 1490 1485 1447 1443 1445 1454 1458 1469 1473 1477 1485 1494 1498 1508
1514 1509 1505 1501 1498 1497 1498 1497 1496 1494 1486 1463 1457 1454 1456 1461 1458 1458 1460 1459 1458 1460 1456 1459 1455 1454 1455 1454 1456 1451 1469 1466 1460 1458 1438 1441 1449 1461 1462 1467 1475 1482 1490 1494 1498
1513 1509 1505 1499 1500 1496 1497 1497 1495 1494 1483 1449 1437 1439 1445 1450 1446 1453 1453 1454 1451 1450 1450 1448 1446 1446 1447 1450 1448 1456 1441 1441 1451 1445 1456 1433 1469 1452 1451 1458 1462 1472 1482 1489 1495
1512 1508 1505 1503 1500 1499 1499 1497 1495 1493 1487 1431 1420 1435 1437 1439 1441 1440 1445 1447 1444 1444 1444 1442 1441 1441 1443 1439 1439 1445 1430 1431 1431 1437 1440 1438 1454 1439 1437 1447 1450 1458 1470 1480 1488
1511 1507 1503 1503 1501 1500 1498 1496 1495 1491 1479 1439 1428 1432 1435 1433 1434 1433 1437 1443 1441 1442 1436 1434 1429 1430 1431 1430 1430 1433 1433 1431 1429 1436 1456 1436 1436 1430 1430 1435 1440 1450 1459 1469 1480
1508 1505 1502 1500 1499 1499 1498 1496 1490 1483 1441 1436 1428 1426 1427 1429 1430 1429 1430 1432 1439 1449 1446 1433 1429 1422 1423 1429 1424 1429 1438 1458 1466 1462 1458 1421 1430 1431 1427 1439 1451 1442 1451 1460 1470
1504 1502 1500 1498 1499 1499 1498 1494 1489 1456 1446 1432 1429 1423 1429 1424 1422 1423 1429 1426 1427 1430 1432 1441 1443 1421 1414 1419 1426 1425 1430 1445 1474 1461 1444 1421 1438 1428 1434 1443 1436 1444 1441 1453 1463
1501 1498 1497 1497 1498 1498 1497 1487 1473 1460 1449 1450 1444 1439 1437 1431 1427 1422 1419 1423 1416 1423 1433 1430 1430 1407 1410 1409 1414 1422 1429 1418 1433 1421 1441 1466 1434 1441 1432 1425 1415 1425 1434 1444 1455
1499 1495 1492 1494 1497 1497 1493 1483 1470 1459 1456 1460 1463 1445 1443 1433 1428 1428 1424 1416 1418 1412 1420 1421 1430 1405 1401 1406 1404 1410 1411 1433 1424 1455 1461 1479 1476 1457 1442 1427 1411 1413 1424 1436 1448
1500 1495 1490 1493 1494 1493 1486 1475 1466 1462 1464 1468 1467 1460 1448 1441 1430 1426 1420 1415 1413 1413 1409 1416 1420 1411 1397 1400 1408 1412 1414 1412 1413 1417 1437 1460 1460 1424 1430 1425 1406 1407 1417 1428 1441
1503 1493 1489 1492 1492 1482 1477 1470 1470 1464 1467 1470 1471 1467 1458 1447 1442 1435 1424 1422 1428 1425 1421 1410 1411 1416 1402 1385 1391 1397 1408 1409 1420 1430 1414 1424 1444 1421 1425 1418 1400 1402 1412 1425 1437
1500 1490 1487 1489 1483 1471 1468 1469 1468 1470 1471 1469 1467 1464 1460 1458 1459 1446 1434 1430 1433 1433 1439 1433 1415 1422 1411 1389 1381 1394 1395 1399 1400 1403 1420 1432 1435 1427 1423 1414 1395 1401 1411 1421 1433
1502 1482 1482 1482 1480 1477 1475 1476 1480 1470 1472 1472 1469 1464 1461 1460 1457 1454 1444 1433 1435 1437 1439 1440 1427 1417 1411 1399 1381 1396 1397 1394 1397 1409 1411 1411 1413 1413 1415 1415 1400 1403 1413 1421 1430
1501 1488 1487 1479 1476 1477 1474 1473 1473 1469 1466 1468 1469 1469 1466 1464 1458 1455 1449 1444 1439 1435 1436 1434 1434 1419 1403 1392 1381 1381 1391 1393 1394 1395 1405 1398 1396 1399 1407 1433 1415 1407 1416 1422 1430
1504 1499 1495 1487 1482 1480 1479 1478 1476 1469 1470 1467 1469 1464 1462 1464 1464 1463 1466 1451 1448 1439 1436 1433 1431 1421 1412 1398 1387 1381 1377 1385 1387 1389 1390 1389 1402 1400 1402 1402 1415 1410 1416 1421 1429
1505 1503 1501 1491 1482 1477 1474 1479 1474 1473 1472 1472 1471 1472 1470 1470 1471 1472 1469 1464 1460 1456 1451 1447 1437 1430 1424 1404 1396 1393 1371 1375 1384 1381 1383 1395 1402 1402 1412 1425 1416 1413 1416 1420 1426
Wind_Speed
14 14 14 15 15 15 15 16 16 15 14 15 13 13 15 14 12 14 6 5 8 9 8 3 6 11 13 17 14 12 4 7 7 9 8 19 20 13 17 23 18 13 17 29 31
15 15 15 16 16 16 16 16 17 16 16 15 15 14 14 16 16 15 11 12 12 8 7 6 12 8 16 18 8 5 7 12 9 15 15 17 18 14 16 18 11 18 29 35 30
15 15 16 16 16 17 17 16 17 17 17 16 15 15 13 14 16 13 12 11 10 6 9 11 14 14 16 21 11 5 4 11 13 14 10 18 13 15 17 11 21 21 31 36 31
15 16 16 16 17 17 17 17 16 16 17 16 15 15 13 9 5 3 3 8 9 8 8 11 12 18 17 7 2 6 10 15 12 11 10 14 9 24 26 2 23 23 30 32 29
16 16 17 17 17 17 17 17 16 14 15 16 15 15 11 9 21 16 12 7 10 7 8 12 16 18 13 11 19 2 5 8 8 15 12 11 11 20 20 16 23 25 28 29 27
18 18 18 18 18 18 17 17 16 16 13 14 15 14 10 16 10 8 9 10 11 9 12 14 14 15 18 20 6 13 20 9 14 11 6 13 9 10 11 18 21 25 26 26 27
20 21 21 21 19 19 17 17 16 15 14 11 12 12 12 25 7 9 11 13 13 14 17 14 14 18 20 14 7 21 17 8 11 12 10 10 9 7 13 18 20 24 26 27 26
22 22 23 23 22 20 18 16 16 15 13 10 8 9 13 17 20 18 14 17 19 19 19 17 17 21 21 22 13 15 25 8 9 10 11 13 4 18 12 19 21 23 27 29 28
25 25 25 24 23 22 18 15 14 13 12 9 6 7 17 8 22 22 26 26 21 21 20 18 17 21 22 16 17 20 8 15 7 17 10 11 15 10 15 19 22 24 28 26 28
23 23 24 25 24 22 19 14 13 10 6 7 11 9 23 17 20 20 22 26 26 24 26 27 22 15 16 15 17 5 9 6 13 8 18 14 14 14 23 25 25 25 30 29 28
27 25 23 21 21 19 20 19 7 0 7 16 9 15 26 11 3 12 15 21 27 26 22 26 17 18 22 21 18 7 8 11 21 18 22 6 19 24 28 26 28 26 28 34 31
25 26 25 20 13 15 16 12 8 8 14 21 27 29 27 23 14 18 21 21 23 22 24 21 23 24 23 24 15 15 7 25 19 14 12 6 18 27 25 27 31 33 31 34 32
23 24 23 18 7 13 7 10 10 12 9 21 28 29 30 28 29 24 18 27 22 24 27 26 27 25 24 24 23 20 22 27 22 20 15 9 11 24 26 27 30 28 30 30 35
22 23 21 17 5 11 6 12 12 10 6 17 25 23 32 27 31 33 29 27 24 25 27 26 28 27 26 26 23 22 24 25 16 11 12 13 9 3 22 23 24 31 31 33 33
20 20 17 11 14 7 12 14 12 6 7 15 8 7 10 31 21 28 33 32 26 24 22 25 29 28 29 27 23 22 24 19 17 10 14 12 9 13 23 23 23 27 35 34 36
20 19 18 7 12 10 15 13 7 6 11 10 8 9 14 20 29 31 29 35 26 24 25 28 28 29 28 26 24 22 25 23 15 12 14 18 15 13 12 15 22 25 33 36 35
19 16 15 11 8 11 13 8 5 8 9 17 19 13 12 18 19 22 22 25 23 19 24 25 28 28 30 27 27 23 22 14 13 14 13 18 16 6 16 6 16 22 31 34 36
19 12 11 9 10 10 9 8 11 12 19 16 8 3 5 7 11 23 24 21 27 28 17 21 21 28 21 31 25 26 23 15 17 15 16 7 10 1 21 24 51 42 33 33 34
19 13 13 9 5 6 10 10 13 13 13 10 16 10 11 15 19 11 19 24 21 27 24 19 27 21 29 25 27 25 21 23 25 21 6 8 6 9 21 20 18 26 34 34 34
19 16 11 8 5 7 10 15 20 21 14 6 14 14 16 20 17 14 16 17 26 24 27 26 22 27 24 29 26 29 18 20 17 23 11 3 4 13 11 16 17 16 31 36 35
11 8 10 5 4 10 10 15 18 24 3 7 13 17 17 18 18 17 18 17 4 25 23 26 25 25 25 27 26 19 21 20 22 17 14 12 6 10 16 20 17 14 34 38 37
12 7 5 4 11 11 11 17 6 17 5 8 11 17 18 17 15 17 14 5 14 15 11 15 22 21 30 26 29 26 26 26 16 19 15 8 5 1 17 24 14 15 36 37 35
9 15 7 4 8 7 6 12 9 10 12 11 12 14 15 14 14 14 20 7 11 11 10 12 9 16 25 22 25 29 27 26 25 17 19 13 3 5 21 24 13 20 33 36 34
9 4 9 10 12 10 9 6 13 15 10 14 15 15 13 15 17 16 16 10 7 11 15 9 11 15 17 21 18 25 28 27 26 17 16 18 13 20 7 17 8 24 30 32 32
7 4 7 7 3 9 11 8 10 12 10 10 11 15 15 14 14 14 18 18 17 10 7 9 15 17 23 26 26 25 24 30 27 23 22 19 18 14 17 19 20 25 26 29 29
6 8 12 16 16 10 8 11 15 13 12 5 11 14 11 12 9 14 16 16 13 14 8 13 14 16 24 24 28 24 29 29 28 27 25 23 8 9 15 19 18 18 26 29 29
6 8 12 18 13 10 8 7 12 10 6 12 16 9 9 14 15 18 17 18 16 13 12 13 11 12 20 19 24 25 22 27 24 26 24 23 15 15 12 13 35 21 26 29 30
Wind_Direction
345 342 338 333 330 326 321 316 311 306 305 308 307 310 312 311 302 300 277 244 265 289 282 261 284 266 277 271 255 241 14 262 121 113 161 152 121 130 137 134 150 181 152 156 156
347 344 341 335 332 328 323 318 314 310 304 303 305 305 309 310 302 279 251 255 279 277 262 236 261 289 281 263 269 134 157 263 102 128 170 134 107 128 126 135 146 92 131 148 151
346 344 340 337 335 330 324 320 314 311 306 301 298 300 305 309 313 260 229 238 264 240 195 278 285 285 277 282 267 39 237 251 102 170 191 119 119 152 144 151 134 133 146 153 153
343 341 338 336 333 331 327 323 317 311 307 301 296 292 298 298 275 23 282 257 231 217 257 279 271 270 280 305 72 11 290 79 84 71 114 68 140 94 80 2 133 140 152 156 158
345 341 336 332 329 327 325 322 320 314 306 300 294 291 293 262 254 258 277 273 209 217 254 274 290 298 329 336 314 79 298 99 95 85 80 153 115 130 130 136 133 147 155 160 163
345 342 337 333 329 325 321 317 316 316 311 298 290 286 283 257 239 256 260 243 218 244 261 264 282 318 300 289 333 176 288 121 137 102 175 117 83 147 127 142 138 156 164 166 171
347 343 339 335 331 327 320 314 310 309 310 302 283 277 253 239 253 239 229 234 236 240 257 263 295 313 311 313 44 310 266 166 166 155 148 95 114 75 144 153 153 164 172 171 178
346 343 339 335 332 329 323 316 309 304 300 301 288 257 255 255 251 241 226 237 240 245 256 265 282 286 281 287 290 215 242 226 4 339 164 113 44 286 167 161 161 175 174 176 178
344 342 339 335 334 332 327 315 315 303 291 282 275 226 260 260 228 228 235 240 240 244 249 258 269 272 281 261 261 251 200 153 222 253 250 148 165 223 203 169 171 180 172 178 175
343 341 338 336 337 339 338 321 315 294 290 271 246 259 255 245 237 235 234 233 237 245 249 245 249 257 255 250 255 313 32 346 213 221 219 184 188 190 199 173 173 183 173 177 178
344 342 341 336 339 357 359 1 332 160 254 255 262 229 282 219 245 229 219 224 227 235 241 241 230 239 247 248 256 356 15 207 292 264 211 210 172 185 180 178 170 183 187 177 184
341 339 338 341 352 14 25 22 13 327 301 274 265 264 254 262 260 245 225 226 219 227 227 237 235 236 247 253 224 155 76 272 237 293 198 210 179 171 180 183 175 177 191 181 183
338 336 336 340 8 12 348 2 345 331 267 284 256 247 239 237 240 244 222 225 221 225 224 227 231 237 236 248 249 247 168 242 268 182 252 230 244 153 180 185 173 183 186 195 186
338 336 343 341 358 344 330 335 336 328 279 274 237 236 228 225 235 233 239 234 224 238 225 236 232 240 231 235 244 249 209 228 229 258 253 193 248 295 179 183 180 179 187 191 194
335 332 341 356 340 349 323 328 320 302 284 323 108 115 212 213 219 223 225 235 228 230 242 230 234 231 239 236 231 250 256 265 252 250 273 222 227 209 222 182 183 184 181 191 193
334 329 326 340 302 302 320 320 311 236 246 256 195 221 222 225 224 247 205 221 236 234 242 243 245 229 236 239 233 239 252 258 254 274 249 252 249 246 184 188 178 191 184 184 187
329 321 311 298 262 321 321 304 235 240 284 237 255 218 227 213 223 223 238 204 216 219 232 241 233 248 226 233 236 220 238 242 232 237 244 249 249 51 143 38 303 185 187 185 182
327 316 322 276 278 298 302 255 241 255 237 294 316 295 259 270 242 203 223 231 210 229 223 225 230 226 237 228 228 229 229 238 230 232 244 26 301 39 124 125 234 256 182 182 186
328 318 283 267 263 282 263 236 240 257 303 2 326 286 245 255 262 244 219 228 219 214 237 226 232 238 224 233 227 234 225 235 250 251 195 344 301 187 187 215 227 208 171 178 185
331 314 258 187 273 260 254 257 277 282 314 303 289 284 246 253 253 224 253 232 234 232 215 245 258 229 228 230 223 229 231 226 239 251 243 155 319 259 260 261 214 169 169 173 177
323 278 150 214 280 248 249 262 253 251 330 296 283 286 288 287 288 294 215 250 318 240 233 219 248 256 228 208 224 212 233 226 239 242 251 202 202 243 276 278 229 176 168 166 173
290 280 165 274 261 239 253 245 296 285 326 283 263 275 284 294 299 296 275 6 12 338 295 278 238 243 254 220 211 219 219 234 239 239 259 272 223 93 305 278 227 176 154 161 169
271 265 259 287 255 246 319 317 270 259 272 272 270 262 274 274 281 284 287 321 359 332 24 345 252 237 245 249 205 213 222 225 238 231 242 250 180 140 263 280 165 166 151 158 168
290 278 212 216 246 286 281 281 264 244 240 278 294 295 278 248 253 270 283 294 357 292 356 316 267 266 238 240 212 202 221 227 231 235 234 242 183 177 78 315 225 145 149 156 168
254 305 348 295 329 310 321 307 286 287 249 212 251 254 269 273 269 253 273 287 300 299 278 267 265 267 264 265 255 207 209 230 229 233 241 242 232 175 143 230 275 145 153 158 170
297 339 326 288 285 277 260 257 264 263 319 267 272 287 326 258 320 323 351 304 300 326 357 307 275 264 266 269 264 263 205 216 233 230 241 250 118 92 39 337 306 161 162 163 175
299 295 291 288 271 262 265 297 266 306 263 305 330 299 262 336 352 319 306 298 304 321 319 310 306 280 261 259 266 263 238 204 221 236 230 237 160 118 92 309 277 188 172 171 178